Location: Del Oro Observatory
(38.3044°N, 104.8119°W)
Time: 16:52:56
(UTC-06:00)

Daily predictions for brighter satellites

Satellite Brightness Start Highest point End
(mag) Time Altitude Azimuth Time Altitude Azimuth Time Altitude Azimuth
Cosmos 858 Rocket 4.5 19:09:32 10° NNW 19:14:49 73° ENE 19:20:01 10° SSE
Cosmos 1758 Rocket 3.7 19:10:27 10° N 19:14:53 56° E 19:19:17 10° SSE
Cosmos 389 Rocket 2.5 19:12:21 10° S 19:15:51 89° WNW 19:19:21 10° N
Cosmos 841 Rocket 3.7 19:12:10 10° S 19:17:05 48° ESE 19:22:02 10° NNE
Cosmos 1340 Rocket 2.8 19:13:15 10° N 19:17:19 64° E 19:21:22 10° SSE
Cosmos 1726 Rocket 3.5 19:13:22 10° S 19:17:41 65° E 19:21:59 10° NNE
USA 229 DEB 3.9 19:12:35 10° NNW 19:19:49 89° WSW 19:27:10 10° SSE
USA 229 3.9 19:12:41 10° NNW 19:19:54 90° WSW 19:27:16 10° SSE
Cosmos 2181 Rocket 4.0 19:15:23 10° N 19:21:33 65° E 19:27:36 10° SSE
Cosmos 2084 3.4 19:18:53 10° SW 19:23:00 79° WNW 19:26:56 10° NNE
Cosmos 1937 Rocket 3.5 19:17:43 10° NNW 19:23:02 73° ENE 19:28:16 10° SSE
NOSS 3-1 (A) 4.5 19:16:57 10° NNW 19:24:10 44° NE 19:32:05 10° ESE
NOSS 3-1 (C) 4.2 19:25:19 10° NNW 19:32:55 63° NE 19:41:17 10° SE
Cosmos 2074 Rocket 4.2 19:27:11 10° SSE 19:33:03 46° E 19:38:56 10° NNE
Cosmos 540 Rocket 4.1 19:29:18 10° SSE 19:33:50 33° E 19:38:22 10° NE
Cosmos 2298 Rocket 4.1 19:29:09 10° NNW 19:34:30 86° WSW 19:39:50 10° SSE
Cosmos 1763 Rocket 3.6 19:31:11 10° SSW 19:36:16 81° WNW 19:41:27 10° NNE
Cosmos 1943 Rocket 2.8 19:30:53 10° NNW 19:36:24 60° WSW 19:41:54 10° S
Cosmos 2228 3.0 19:38:45 10° S 19:43:07 83° E 19:47:28 10° N
Meteor 1-24 Rocket 4.1 19:37:48 10° N 19:43:33 48° ENE 19:49:05 10° SSE
SJ-6B 3.1 19:44:10 10° SSE 19:48:01 48° ENE 19:51:50 10° N
FALCON 9 R/B 1.7 19:49:00 10° WSW 19:51:38 49° S 19:55:16 18° E
Cosmos 1953 4.3 19:53:13 13° ENE 19:53:13 13° ENE 19:54:08 10° NE
Resurs 01 Rocket 2.6 19:51:54 17° ESE 19:54:14 27° ENE 19:57:56 10° NNE
Cosmos 1356 Rocket 3.4 19:52:38 10° N 19:56:57 71° E 20:01:14 10° SSE
Cosmos 1812 Rocket 4.1 19:53:15 10° SSE 19:57:18 35° E 20:01:22 10° NNE
GP-B 4.0 19:54:58 10° NNE 19:58:49 28° E 20:01:04 18° SE
H-2A R/B 2.5 19:55:50 10° SSE 19:59:31 78° ENE 20:03:17 10° N
Cosmos 2058 Rocket 4.0 19:59:20 10° SSW 20:03:34 51° W 20:07:50 10° N
Thor Agena Rocket 4.2 20:00:36 10° N 20:05:45 59° WNW 20:10:50 10° SSW
Meteor 2-8 Rocket 4.5 20:01:04 10° N 20:07:05 56° E 20:13:02 10° SSE
Spot 2 Rocket 4.1 20:05:05 22° ESE 20:07:35 35° ENE 20:12:08 10° N
Cosmos 1656 Rocket 3.9 20:04:58 10° NNW 20:10:36 74° WSW 20:16:07 10° SSE
ORS 1 (USA 231) 4.3 20:07:43 10° WNW 20:10:41 86° NNE 20:11:15 54° E
Cosmos 2184 Rocket 4.0 20:04:30 10° S 20:10:49 89° WNW 20:17:13 10° N
Cosmos 836 Rocket 4.4 20:06:43 10° SSW 20:11:59 83° ESE 20:17:17 10° NNE
Cosmos 292 Rocket 4.2 20:11:56 10° SSE 20:16:21 37° ESE 20:20:48 10° NE
Cosmos 1610 Rocket 4.5 20:10:34 10° S 20:16:52 71° E 20:23:14 10° NNE
Meteor 2-19 Rocket 4.4 20:11:47 10° S 20:17:42 62° E 20:23:40 10° NNE
ISS -3.8 20:16:32 10° SW 20:19:44 57° SE 20:19:45 57° SE
Cosmos 1766 3.6 20:16:51 10° SSW 20:20:45 66° W 20:24:39 10° N
Cosmos 1544 3.2 20:19:23 10° SSW 20:22:58 71° W 20:26:36 10° N
Meteor 1-22 Rocket 4.5 20:17:47 10° SSW 20:23:31 71° W 20:29:01 10° N
OAO 3 Copernicus 4.4 20:20:32 10° W 20:25:31 60° S 20:27:10 39° ESE
COSMOS 2406 3.6 20:20:29 10° SSW 20:26:08 67° WNW 20:31:52 10° NNE
Cosmos 1356 3.6 20:26:59 10° N 20:30:00 55° NE 20:30:00 55° NE
Cosmos 1125 Rocket 3.4 20:29:15 10° NNW 20:34:34 85° ENE 20:37:25 29° SSE
Cosmos 1674 4.1 20:31:04 10° N 20:32:58 25° NNE 20:32:58 25° NNE
Cosmos 1758 3.2 20:35:13 64° ESE 20:35:30 67° E 20:39:29 10° NNE
MOS 1-B Rocket 3.9 20:33:42 23° SSE 20:37:41 69° ENE 20:43:20 10° N
Cosmos 372 Rocket 3.9 20:33:24 10° NNW 20:38:41 82° ENE 20:40:50 37° SSE
Envisat 2.9 20:38:12 42° SE 20:39:51 67° ENE 20:44:54 10° N
BREEZE M DEB (TANK) 2.5 20:36:21 10° NW 20:41:47 79° SW 20:41:47 79° SW
Meteor 1-21 Rocket 4.3 20:38:30 10° N 20:44:08 55° ENE 20:45:01 50° ESE
Cosmos 1939 Rocket 4.2 20:50:47 29° NNE 20:50:47 29° NNE 20:52:53 10° N
GEOS 3 Rocket 4.4 20:53:11 35° S 20:53:11 35° S 20:56:31 10° SSW
Cosmos 962 Rocket 4.4 20:46:04 10° S 20:52:24 77° E 20:58:46 10° N
Cosmos 1805 4.4 20:50:21 10° SSW 20:54:04 43° W 20:57:49 10° N
SL-27 R/B 4.2 20:55:57 10° SW 21:03:38 - N 20:57:54 28° SW
ATLAS 2AS CENTAUR R/B 3.5 20:58:43 10° NNW 21:06:13 41° NE 21:07:04 40° ENE
Resurs 1-3 4.4 21:05:33 42° SW 21:06:28 49° W 21:10:45 10° NNW
Milstar 3 Cent rocket 3.6 21:08:42 10° SW 21:11:01 21° SSW 21:11:01 21° SSW
Cosmos 2278 4.2 21:10:31 10° NNW 21:15:00 49° NNE 21:15:00 49° NNE
Cosmos 1953 4.3 21:28:52 27° NW 21:28:52 27° NW 21:31:26 10° NNW
Cosmos 2341 Rocket 4.5 21:22:21 10° SSW 21:28:25 57° W 21:34:32 10° N
Resurs 01 Rocket 3.6 21:29:29 22° WSW 21:30:38 25° W 21:34:17 10° NW
Cosmos 1697 Rocket 4.0 21:32:48 10° NNW 21:35:54 31° N 21:35:54 31° N
Cosmos 1980 Rocket 4.0 21:34:45 10° N 21:36:53 20° NNE 21:36:53 20° NNE
ATLAS 2AS CENTAUR R/B 4.2 22:49:53 10° NW 22:54:31 34° WNW 22:54:31 34° WNW
